Home   Weather   South Melbourne beach   Past weeks
Flag for Australia

Past Weather in South Melbourne beach, Victoria, Australia — Yesterday and Last 2 Weeks

Now
54 °F

Passing clouds.


Feels Like: 51 °F
Forecast: 64 / 53 °F
Wind: 8 mph from South

Location: Melbourne Airport

Current Time: Oct 15, 2019 at 3:11:57 am

Latest Report: Oct 15, 2019 at 2:30 am


Visibility: 4 mi

Pressure: 29.95 "Hg

Humidity: 94%

Dew Point: 52 °F

Location of South Melbourne beachLocation

Past Weather in South Melbourne beach — Graph

°F

South Melbourne beach Temperature Yesterday

Maximum temperature yesterday: 77 °F (at 2:02 pm)
Minimum temperature yesterday: 55 °F (at 2:30 am)
Average temperature yesterday: 63 °F

High & Low Weather Summary for the Past Weeks

 TemperatureHumidityPressure
High84 °F (Oct 3, 1:11 pm)100% (Oct 5, 3:00 am)30.42 "Hg (Oct 5, 3:00 am)
Low34 °F (Oct 1, 4:30 am)17% (Oct 2, 2:00 pm)29.59 "Hg (Oct 6, 8:12 am)
Average57 °F67%30.11 "Hg
* Reported Sep 30 12:00 am — Oct 15 1:30 am, South Melbourne beach. Weather by CustomWeather, © 2019

Note: Actual official high and low records may vary slightly from our data, if they occured in-between our weather recording intervals... More about our weather records

Advertising

South Melbourne beach Weather History for the Previous 24 Hours

Scroll right to see more
 ConditionsComfort  
Time TempWeatherWind HumidityBarometerVisibility
1:30 am
Tue, Oct 15
55 °FPassing clouds.9 mph88%29.98 "HgN/A
1:00 am55 °FPartly cloudy.8 mph88%29.98 "HgN/A
12:30 am55 °FPartly cloudy.7 mph94%29.98 "HgN/A
12:00 am55 °FPartly cloudy.8 mph94%29.98 "HgN/A
11:30 pm
Mon, Oct 14
55 °FPassing clouds.9 mph94%29.98 "Hg4 mi
11:00 pm57 °FPassing clouds.10 mph82%29.98 "HgN/A
10:30 pm57 °FPassing clouds.10 mph82%29.98 "HgN/A
10:00 pm57 °FPassing clouds.10 mph82%29.98 "HgN/A
9:30 pm57 °FPassing clouds.10 mph77%29.98 "HgN/A
9:00 pm57 °FPassing clouds.12 mph77%29.95 "HgN/A
8:30 pm57 °FPassing clouds.12 mph77%29.95 "HgN/A
8:00 pm57 °FPassing clouds.13 mph77%29.92 "HgN/A
7:30 pm57 °FPassing clouds.14 mph77%29.92 "HgN/A
7:00 pm59 °FSunny.12 mph77%29.89 "Hg10 mi
6:30 pm61 °FSunny.13 mph72%29.89 "Hg10 mi
6:00 pm61 °FSunny.15 mph72%29.86 "Hg10 mi
5:30 pm66 °FSunny.17 mph64%29.86 "Hg10 mi
5:00 pm68 °FSunny.15 mph53%29.86 "Hg10 mi
4:30 pm68 °FSunny.17 mph46%29.83 "Hg10 mi
4:00 pm77 °FSunny.15 mph26%29.83 "Hg10 mi
3:30 pm77 °FSunny.17 mph30%29.83 "Hg10 mi
3:00 pm75 °FSunny.17 mph31%29.83 "Hg10 mi
2:30 pm75 °FSunny.17 mph31%29.86 "Hg10 mi
2:02 pm77 °FSunny.17 mph34%29.86 "Hg10 mi
2:00 pm75 °FSunny.16 mph34%29.86 "Hg10 mi
1:30 pm75 °FSunny.16 mph34%29.86 "Hg10 mi
1:00 pm73 °FSunny.20 mph33%29.89 "Hg10 mi
12:44 pm75 °FSunny.17 mph34%29.89 "Hg10 mi
12:00 pm72 °FSunny.17 mph38%29.92 "Hg10 mi
11:00 am64 °FSunny.15 mph46%29.92 "Hg10 mi
10:30 am64 °FSunny.21 mph49%29.92 "Hg10 mi
10:00 am64 °FSunny.15 mph46%29.92 "Hg10 mi
9:30 am63 °FSunny.18 mph49%29.92 "Hg10 mi
9:00 am63 °FSunny.16 mph52%29.92 "Hg10 mi
8:30 am61 °FSunny.13 mph52%29.92 "Hg10 mi
8:00 am59 °FSunny.13 mph59%29.92 "Hg10 mi
7:30 am57 °FSunny.10 mph67%29.92 "Hg10 mi
7:00 am55 °FBroken clouds.7 mph72%29.92 "HgN/A
6:30 am55 °FScattered showers. Passing clouds.5 mph77%29.92 "HgN/A
6:00 am55 °FClear.6 mph77%29.92 "Hg10 mi
5:30 am55 °FClear.No wind82%29.92 "Hg10 mi
5:00 am55 °FClear.3 mph82%29.89 "Hg10 mi
4:30 am57 °FClear.1 mph72%29.92 "Hg10 mi
4:00 am57 °FClear.2 mph72%29.89 "Hg10 mi
3:30 am57 °FLight rain. Clear.7 mph77%29.89 "HgN/A
3:00 am59 °FLight rain. Clear.9 mph63%29.89 "HgN/A
Weather by CustomWeather, © 2019

See weather overview